Location: Lynch Observatory
(39.9540°N, 75.1861°W)
Time: 19:23:23
(UTC-04:00)

ZACube-1 - Pass Details

Date: 28 April 2024
Orbit: 566 x 635 km, 97.7° (Epoch: 28 May)

Event Time Altitude Azimuth Distance (km) Brightness Sun altitude
Rises 04:18:14 0° 7° (N) 2,935 ? -18.5°
Reaches altitude 10° 04:20:28 10° 3° (N) 2,028 ? -18.2°
Maximum altitude 04:24:47 55° 286° (WNW) 771 ? -17.6°
Enters shadow 04:26:27 34° 227° (SW) 1,058 ? -17.3°
